Wetterdaten: Sonntag, 11.10.2015
Datum Zeit Temp. A. Feuchte A. Luftdruck Regen Wind Richtung Richtung Sonnenschein ET UV Solar Taupunkt Windchill Windben Empfang
11.10.2015 00:04 6,6 C 88 % 1013,8 hPa 0,0 l/m 12,2 km/h (2 Bft) O-SO 111 0 min 0,000 mm 0,0 UV-I 0 W/m 4,8 C 2,5 C 15,8 km/h (3 Bft) 0,00 %
11.10.2015 00:09 6,6 C 88 % 1013,7 hPa 0,0 l/m 14,0 km/h (3 Bft) O 99 0 min 0,000 mm 0,0 UV-I 0 W/m 4,8 C 1,5 C 15,8 km/h (3 Bft) 0,00 %
11.10.2015 00:14 6,6 C 88 % 1013,5 hPa 0,0 l/m 4,7 km/h (1 Bft) O-NO 75 0 min 0,000 mm 0,0 UV-I 0 W/m 4,8 C 6,6 C 7,9 km/h (2 Bft) 0,00 %
11.10.2015 00:19 6,6 C 88 % 1013,6 hPa 0,0 l/m 9,7 km/h (2 Bft) O 89 0 min 0,000 mm 0,0 UV-I 0 W/m 4,8 C 4,0 C 11,9 km/h (2 Bft) 0,00 %
11.10.2015 00:24 6,6 C 88 % 1013,5 hPa 0,0 l/m 12,2 km/h (2 Bft) O 100 0 min 0,000 mm 0,0 UV-I 0 W/m 4,8 C 2,5 C 15,8 km/h (3 Bft) 0,00 %
11.10.2015 00:29 6,5 C 88 % 1013,6 hPa 0,0 l/m 14,0 km/h (3 Bft) O-SO 107 0 min 0,000 mm 0,0 UV-I 0 W/m 4,7 C 1,4 C 19,8 km/h (3 Bft) 0,00 %
11.10.2015 00:34 6,5 C 87 % 1013,4 hPa 0,0 l/m 11,5 km/h (2 Bft) O 79 0 min 0,000 mm 0,0 UV-I 0 W/m 4,5 C 2,8 C 15,8 km/h (3 Bft) 0,00 %
11.10.2015 00:39 6,6 C 87 % 1013,3 hPa 0,0 l/m 5,8 km/h (2 Bft) O-SO 109 0 min 0,000 mm 0,0 UV-I 0 W/m 4,6 C 6,6 C 7,9 km/h (2 Bft) 0,00 %
11.10.2015 00:44 6,6 C 87 % 1013,6 hPa 0,0 l/m 8,3 km/h (2 Bft) O-SO 120 0 min 0,000 mm 0,0 UV-I 0 W/m 4,6 C 5,1 C 11,9 km/h (2 Bft) 0,00 %
11.10.2015 00:49 6,6 C 87 % 1013,6 hPa 0,0 l/m 5,4 km/h (1 Bft) O-NO 64 0 min 0,000 mm 0,0 UV-I 0 W/m 4,6 C 6,6 C 7,9 km/h (2 Bft) 0,00 %
11.10.2015 00:54 6,5 C 87 % 1013,6 hPa 0,0 l/m 2,9 km/h (1 Bft) O-NO 57 0 min 0,000 mm 0,0 UV-I 0 W/m 4,5 C 6,5 C 4,0 km/h (1 Bft) 0,00 %
11.10.2015 00:59 6,4 C 88 % 1013,5 hPa 0,0 l/m 14,8 km/h (3 Bft) O 97 0 min 0,000 mm 0,0 UV-I 0 W/m 4,6 C 0,9 C 19,8 km/h (3 Bft) 0,00 %
11.10.2015 01:04 6,4 C 88 % 1013,6 hPa 0,0 l/m 4,7 km/h (1 Bft) O 89 0 min 0,000 mm 0,0 UV-I 0 W/m 4,6 C 6,4 C 7,9 km/h (2 Bft) 0,00 %
11.10.2015 01:09 6,3 C 88 % 1013,6 hPa 0,0 l/m 14,8 km/h (3 Bft) O 100 0 min 0,000 mm 0,0 UV-I 0 W/m 4,5 C 0,7 C 19,8 km/h (3 Bft) 0,00 %
11.10.2015 01:14 6,2 C 88 % 1013,5 hPa 0,0 l/m 4,3 km/h (1 Bft) O-SO 115 0 min 0,000 mm 0,0 UV-I 0 W/m 4,4 C 6,2 C 7,9 km/h (2 Bft) 0,00 %
11.10.2015 01:19 6,1 C 89 % 1013,5 hPa 0,0 l/m 7,2 km/h (2 Bft) O-SO 116 0 min 0,000 mm 0,0 UV-I 0 W/m 4,4 C 5,4 C 15,8 km/h (3 Bft) 0,00 %
11.10.2015 01:24 6,1 C 89 % 1013,4 hPa 0,0 l/m 6,5 km/h (2 Bft) O-SO 106 0 min 0,000 mm 0,0 UV-I 0 W/m 4,4 C 6,0 C 7,9 km/h (2 Bft) 0,00 %
11.10.2015 01:29 6,0 C 89 % 1013,4 hPa 0,0 l/m 9,0 km/h (2 Bft) O 92 0 min 0,000 mm 0,0 UV-I 0 W/m 4,3 C 3,9 C 11,9 km/h (2 Bft) 0,00 %
11.10.2015 01:34 5,9 C 90 % 1013,5 hPa 0,0 l/m 13,0 km/h (3 Bft) O-SO 111 0 min 0,000 mm 0,0 UV-I 0 W/m 4,4 C 1,2 C 15,8 km/h (3 Bft) 0,00 %
11.10.2015 01:39 5,9 C 91 % 1013,3 hPa 0,0 l/m 6,8 km/h (2 Bft) O-NO 71 0 min 0,000 mm 0,0 UV-I 0 W/m 4,5 C 5,6 C 11,9 km/h (2 Bft) 0,00 %
11.10.2015 01:44 5,8 C 91 % 1013,4 hPa 0,0 l/m 6,8 km/h (2 Bft) O 94 0 min 0,000 mm 0,0 UV-I 0 W/m 4,4 C 5,5 C 15,8 km/h (3 Bft) 0,00 %
11.10.2015 01:49 5,7 C 92 % 1013,5 hPa 0,0 l/m 8,3 km/h (2 Bft) O-NO 65 0 min 0,000 mm 0,0 UV-I 0 W/m 4,5 C 4,1 C 11,9 km/h (2 Bft) 0,00 %
11.10.2015 01:54 5,7 C 92 % 1013,3 hPa 0,0 l/m 11,5 km/h (2 Bft) O-NO 63 0 min 0,000 mm 0,0 UV-I 0 W/m 4,5 C 1,9 C 15,8 km/h (3 Bft) 0,00 %
11.10.2015 01:59 5,7 C 93 % 1013,4 hPa 0,3 l/m 2,9 km/h (1 Bft) O 80 0 min 0,000 mm 0,0 UV-I 0 W/m 4,7 C 5,7 C 4,0 km/h (1 Bft) 0,00 %
11.10.2015 02:04 5,6 C 93 % 1013,3 hPa 0,0 l/m 0,7 km/h (0 Bft) NO 47 0 min 0,000 mm 0,0 UV-I 0 W/m 4,6 C 5,6 C 4,0 km/h (1 Bft) 0,00 %
11.10.2015 02:09 5,6 C 93 % 1013,3 hPa 0,0 l/m 2,2 km/h (1 Bft) O 83 0 min 0,000 mm 0,0 UV-I 0 W/m 4,6 C 5,6 C 4,0 km/h (1 Bft) 0,00 %
11.10.2015 02:14 5,5 C 93 % 1013,4 hPa 0,0 l/m 9,7 km/h (2 Bft) S-SO 150 0 min 0,000 mm 0,0 UV-I 0 W/m 4,5 C 2,8 C 15,8 km/h (3 Bft) 0,00 %
11.10.2015 02:19 5,5 C 93 % 1013,5 hPa 0,0 l/m 5,8 km/h (2 Bft) O-SO 104 0 min 0,000 mm 0,0 UV-I 0 W/m 4,5 C 5,5 C 11,9 km/h (2 Bft) 0,00 %
11.10.2015 02:24 5,4 C 94 % 1013,5 hPa 0,3 l/m 11,5 km/h (2 Bft) O-SO 123 0 min 0,000 mm 0,0 UV-I 0 W/m 4,5 C 1,5 C 15,8 km/h (3 Bft) 0,00 %
11.10.2015 02:29 5,4 C 94 % 1013,5 hPa 0,0 l/m 6,8 km/h (2 Bft) O-SO 113 0 min 0,000 mm 0,0 UV-I 0 W/m 4,5 C 5,1 C 7,9 km/h (2 Bft) 0,00 %
11.10.2015 02:34 5,4 C 94 % 1013,4 hPa 0,0 l/m 7,2 km/h (2 Bft) O-SO 118 0 min 0,000 mm 0,0 UV-I 0 W/m 4,5 C 4,7 C 11,9 km/h (2 Bft) 0,00 %
11.10.2015 02:39 5,3 C 94 % 1013,5 hPa 0,0 l/m 4,3 km/h (1 Bft) O 98 0 min 0,000 mm 0,0 UV-I 0 W/m 4,4 C 5,3 C 7,9 km/h (2 Bft) 0,00 %
11.10.2015 02:44 5,3 C 94 % 1013,3 hPa 0,3 l/m 4,7 km/h (1 Bft) SO 127 0 min 0,000 mm 0,0 UV-I 0 W/m 4,4 C 5,3 C 7,9 km/h (2 Bft) 0,00 %
11.10.2015 02:49 5,2 C 94 % 1013,3 hPa 0,0 l/m 8,3 km/h (2 Bft) O-SO 104 0 min 0,000 mm 0,0 UV-I 0 W/m 4,3 C 3,6 C 11,9 km/h (2 Bft) 0,00 %
11.10.2015 02:54 5,1 C 94 % 1013,2 hPa 0,3 l/m 6,5 km/h (2 Bft) O-SO 117 0 min 0,000 mm 0,0 UV-I 0 W/m 4,2 C 5,0 C 11,9 km/h (2 Bft) 0,00 %
11.10.2015 02:59 5,0 C 94 % 1013,3 hPa 0,0 l/m 7,2 km/h (2 Bft) O-NO 64 0 min 0,000 mm 0,0 UV-I 0 W/m 4,1 C 4,3 C 11,9 km/h (2 Bft) 0,00 %
11.10.2015 03:04 5,0 C 94 % 1013,3 hPa 0,0 l/m 0,7 km/h (0 Bft) O-NO 62 0 min 0,000 mm 0,0 UV-I 0 W/m 4,1 C 5,0 C 4,0 km/h (1 Bft) 0,00 %
11.10.2015 03:09 5,0 C 94 % 1013,2 hPa 0,0 l/m 5,4 km/h (1 Bft) O 80 0 min 0,000 mm 0,0 UV-I 0 W/m 4,1 C 5,0 C 7,9 km/h (2 Bft) 0,00 %
11.10.2015 03:14 5,0 C 94 % 1013,0 hPa 0,3 l/m 5,8 km/h (2 Bft) O-SO 106 0 min 0,000 mm 0,0 UV-I 0 W/m 4,1 C 5,0 C 7,9 km/h (2 Bft) 0,00 %
11.10.2015 03:19 4,9 C 95 % 1013,1 hPa 0,0 l/m 9,4 km/h (2 Bft) O-SO 110 0 min 0,000 mm 0,0 UV-I 0 W/m 4,2 C 2,4 C 11,9 km/h (2 Bft) 0,00 %
11.10.2015 03:24 4,9 C 96 % 1013,2 hPa 0,0 l/m 6,5 km/h (2 Bft) O-SO 118 0 min 0,000 mm 0,0 UV-I 0 W/m 4,3 C 4,8 C 7,9 km/h (2 Bft) 0,00 %
11.10.2015 03:29 4,8 C 96 % 1013,0 hPa 0,3 l/m 4,0 km/h (1 Bft) O 92 0 min 0,000 mm 0,0 UV-I 0 W/m 4,2 C 4,8 C 7,9 km/h (2 Bft) 0,00 %
11.10.2015 03:34 4,8 C 96 % 1013,1 hPa 0,0 l/m 4,7 km/h (1 Bft) O 94 0 min 0,000 mm 0,0 UV-I 0 W/m 4,2 C 4,8 C 7,9 km/h (2 Bft) 0,00 %
11.10.2015 03:39 4,8 C 96 % 1013,2 hPa 0,0 l/m 7,2 km/h (2 Bft) O 82 0 min 0,000 mm 0,0 UV-I 0 W/m 4,2 C 4,1 C 11,9 km/h (2 Bft) 0,00 %
11.10.2015 03:44 4,8 C 96 % 1012,9 hPa 0,3 l/m 5,4 km/h (1 Bft) NO 56 0 min 0,000 mm 0,0 UV-I 0 W/m 4,2 C 4,8 C 7,9 km/h (2 Bft) 0,00 %
11.10.2015 03:49 4,8 C 96 % 1012,9 hPa 0,0 l/m 9,4 km/h (2 Bft) SO 137 0 min 0,000 mm 0,0 UV-I 0 W/m 4,2 C 2,3 C 11,9 km/h (2 Bft) 0,00 %
11.10.2015 03:54 4,7 C 96 % 1012,9 hPa 0,0 l/m 2,2 km/h (1 Bft) O 91 0 min 0,000 mm 0,0 UV-I 0 W/m 4,1 C 4,7 C 4,0 km/h (1 Bft) 0,00 %
11.10.2015 03:59 4,7 C 96 % 1012,9 hPa 0,3 l/m 4,0 km/h (1 Bft) SO 136 0 min 0,000 mm 0,0 UV-I 0 W/m 4,1 C 4,7 C 7,9 km/h (2 Bft) 0,00 %
11.10.2015 04:04 4,7 C 97 % 1012,9 hPa 0,0 l/m 4,7 km/h (1 Bft) O 89 0 min 0,000 mm 0,0 UV-I 0 W/m 4,3 C 4,7 C 7,9 km/h (2 Bft) 0,00 %
11.10.2015 04:09 4,7 C 97 % 1013,0 hPa 0,0 l/m 0,4 km/h (0 Bft) SO 136 0 min 0,000 mm 0,0 UV-I 0 W/m 4,3 C 4,7 C 4,0 km/h (1 Bft) 0,00 %
11.10.2015 04:14 4,7 C 97 % 1013,1 hPa 0,3 l/m 6,5 km/h (2 Bft) O 92 0 min 0,000 mm 0,0 UV-I 0 W/m 4,3 C 4,6 C 7,9 km/h (2 Bft) 0,00 %
11.10.2015 04:19 4,7 C 97 % 1013,0 hPa 0,0 l/m 0,7 km/h (0 Bft) NO 53 0 min 0,000 mm 0,0 UV-I 0 W/m 4,3 C 4,7 C 4,0 km/h (1 Bft) 0,00 %
11.10.2015 04:24 4,7 C 97 % 1013,0 hPa 0,0 l/m 4,0 km/h (1 Bft) O 84 0 min 0,000 mm 0,0 UV-I 0 W/m 4,3 C 4,7 C 7,9 km/h (2 Bft) 0,00 %
11.10.2015 04:29 4,7 C 97 % 1013,1 hPa 0,0 l/m 6,5 km/h (2 Bft) O 89 0 min 0,000 mm 0,0 UV-I 0 W/m 4,3 C 4,6 C 7,9 km/h (2 Bft) 0,00 %
11.10.2015 04:34 4,7 C 97 % 1012,9 hPa 0,3 l/m 4,3 km/h (1 Bft) O 80 0 min 0,000 mm 0,0 UV-I 0 W/m 4,3 C 4,7 C 7,9 km/h (2 Bft) 0,00 %
11.10.2015 04:39 4,6 C 97 % 1012,9 hPa 0,0 l/m 8,3 km/h (2 Bft) O 91 0 min 0,000 mm 0,0 UV-I 0 W/m 4,2 C 2,9 C 11,9 km/h (2 Bft) 0,00 %
11.10.2015 04:44 4,6 C 97 % 1013,0 hPa 0,0 l/m 5,8 km/h (2 Bft) O 88 0 min 0,000 mm 0,0 UV-I 0 W/m 4,2 C 4,6 C 7,9 km/h (2 Bft) 0,00 %
11.10.2015 04:49 4,6 C 97 % 1013,1 hPa 0,0 l/m 0,0 km/h (0 Bft) O-NO 69 0 min 0,000 mm 0,0 UV-I 0 W/m 4,2 C 4,6 C 0,0 km/h (0 Bft) 0,00 %
11.10.2015 04:54 4,6 C 98 % 1013,0 hPa 0,0 l/m 3,2 km/h (1 Bft) NO 44 0 min 0,000 mm 0,0 UV-I 0 W/m 4,3 C 4,6 C 7,9 km/h (2 Bft) 0,00 %
11.10.2015 04:59 4,6 C 98 % 1013,1 hPa 0,3 l/m 4,0 km/h (1 Bft) O-SO 110 0 min 0,000 mm 0,0 UV-I 0 W/m 4,3 C 4,6 C 4,0 km/h (1 Bft) 0,00 %
11.10.2015 05:04 4,6 C 98 % 1013,2 hPa 0,0 l/m 4,3 km/h (1 Bft) O-SO 110 0 min 0,000 mm 0,0 UV-I 0 W/m 4,3 C 4,6 C 7,9 km/h (2 Bft) 0,00 %
11.10.2015 05:09 4,6 C 98 % 1013,2 hPa 0,0 l/m 0,0 km/h (0 Bft) O-NO 61 0 min 0,000 mm 0,0 UV-I 0 W/m 4,3 C 4,6 C 0,0 km/h (0 Bft) 0,00 %
11.10.2015 05:14 4,6 C 98 % 1013,2 hPa 0,0 l/m 2,2 km/h (1 Bft) SO 131 0 min 0,000 mm 0,0 UV-I 0 W/m 4,3 C 4,6 C 4,0 km/h (1 Bft) 0,00 %
11.10.2015 05:19 4,6 C 98 % 1013,2 hPa 0,3 l/m 0,0 km/h (0 Bft) O-NO 61 0 min 0,000 mm 0,0 UV-I 0 W/m 4,3 C 4,6 C 0,0 km/h (0 Bft) 0,00 %
11.10.2015 05:24 4,6 C 98 % 1013,1 hPa 0,0 l/m 1,4 km/h (1 Bft) O 84 0 min 0,000 mm 0,0 UV-I 0 W/m 4,3 C 4,6 C 4,0 km/h (1 Bft) 0,00 %
11.10.2015 05:29 4,5 C 98 % 1013,3 hPa 0,0 l/m 0,4 km/h (0 Bft) O-NO 75 0 min 0,000 mm 0,0 UV-I 0 W/m 4,2 C 4,5 C 4,0 km/h (1 Bft) 0,00 %
11.10.2015 05:34 4,5 C 98 % 1013,3 hPa 0,0 l/m 0,4 km/h (0 Bft) O-SO 104 0 min 0,000 mm 0,0 UV-I 0 W/m 4,2 C 4,5 C 4,0 km/h (1 Bft) 0,00 %
11.10.2015 05:39 4,5 C 98 % 1013,4 hPa 0,3 l/m 0,0 km/h (0 Bft) O 87 0 min 0,000 mm 0,0 UV-I 0 W/m 4,2 C 4,5 C 0,0 km/h (0 Bft) 0,00 %
11.10.2015 05:44 4,5 C 99 % 1013,4 hPa 0,0 l/m 1,4 km/h (1 Bft) SO 128 0 min 0,000 mm 0,0 UV-I 0 W/m 4,4 C 4,5 C 4,0 km/h (1 Bft) 0,00 %
11.10.2015 05:49 4,5 C 99 % 1013,4 hPa 0,0 l/m 0,0 km/h (0 Bft) O 89 0 min 0,000 mm 0,0 UV-I 0 W/m 4,4 C 4,5 C 0,0 km/h (0 Bft) 0,00 %
11.10.2015 05:54 4,4 C 99 % 1013,4 hPa 0,0 l/m 0,0 km/h (0 Bft) O 85 0 min 0,000 mm 0,0 UV-I 0 W/m 4,3 C 4,4 C 0,0 km/h (0 Bft) 0,00 %
11.10.2015 05:59 4,4 C 99 % 1013,5 hPa 0,0 l/m 3,2 km/h (1 Bft) O 90 0 min 0,000 mm 0,0 UV-I 0 W/m 4,3 C 4,4 C 4,0 km/h (1 Bft) 0,00 %
11.10.2015 06:04 4,4 C 99 % 1013,4 hPa 0,0 l/m 0,0 km/h (0 Bft) O-SO 106 0 min 0,000 mm 0,0 UV-I 0 W/m 4,3 C 4,4 C 0,0 km/h (0 Bft) 0,00 %
11.10.2015 06:09 4,4 C 99 % 1013,5 hPa 0,3 l/m 1,4 km/h (1 Bft) O-NO 68 0 min 0,000 mm 0,0 UV-I 0 W/m 4,3 C 4,4 C 4,0 km/h (1 Bft) 0,00 %
11.10.2015 06:14 4,4 C 99 % 1013,5 hPa 0,0 l/m 2,2 km/h (1 Bft) O-NO 68 0 min 0,000 mm 0,0 UV-I 0 W/m 4,3 C 4,4 C 4,0 km/h (1 Bft) 0,00 %
11.10.2015 06:19 4,4 C 99 % 1013,5 hPa 0,0 l/m 0,4 km/h (0 Bft) S-SO 152 0 min 0,000 mm 0,0 UV-I 0 W/m 4,3 C 4,4 C 4,0 km/h (1 Bft) 0,00 %
11.10.2015 06:24 4,4 C 99 % 1013,5 hPa 0,3 l/m 4,0 km/h (1 Bft) O 95 0 min 0,000 mm 0,0 UV-I 0 W/m 4,3 C 4,4 C 7,9 km/h (2 Bft) 0,00 %
11.10.2015 06:30 4,4 C 99 % 1013,4 hPa 0,0 l/m 1,8 km/h (1 Bft) O-SO 119 0 min 0,000 mm 0,0 UV-I 0 W/m 4,3 C 4,4 C 4,0 km/h (1 Bft) 0,00 %
11.10.2015 06:35 4,4 C 99 % 1013,4 hPa 0,0 l/m 0,0 km/h (0 Bft) O 100 0 min 0,000 mm 0,0 UV-I 0 W/m 4,3 C 4,4 C 0,0 km/h (0 Bft) 0,00 %
11.10.2015 06:40 4,4 C 99 % 1013,4 hPa 0,3 l/m 1,4 km/h (1 Bft) O-SO 102 0 min 0,000 mm 0,0 UV-I 0 W/m 4,3 C 4,4 C 4,0 km/h (1 Bft) 0,00 %
11.10.2015 06:45 4,4 C 99 % 1013,5 hPa 0,0 l/m 0,0 km/h (0 Bft) O 98 0 min 0,000 mm 0,0 UV-I 0 W/m 4,3 C 4,4 C 0,0 km/h (0 Bft) 0,00 %
11.10.2015 06:50 4,4 C 99 % 1013,4 hPa 0,0 l/m 0,4 km/h (0 Bft) O-NO 63 0 min 0,000 mm 0,0 UV-I 0 W/m 4,3 C 4,4 C 4,0 km/h (1 Bft) 0,00 %
11.10.2015 06:55 4,4 C 99 % 1013,4 hPa 0,3 l/m 1,8 km/h (1 Bft) O 85 0 min 0,000 mm 0,0 UV-I 0 W/m 4,3 C 4,4 C 4,0 km/h (1 Bft) 0,00 %
11.10.2015 07:00 4,4 C 99 % 1013,5 hPa 0,0 l/m 4,7 km/h (1 Bft) O-SO 105 0 min 0,000 mm 0,0 UV-I 0 W/m 4,3 C 4,4 C 7,9 km/h (2 Bft) 0,00 %
11.10.2015 07:05 4,3 C 99 % 1013,5 hPa 0,0 l/m 0,0 km/h (0 Bft) O-NO 69 0 min 0,000 mm 0,0 UV-I 0 W/m 4,2 C 4,3 C 0,0 km/h (0 Bft) 0,00 %
11.10.2015 07:10 4,3 C 99 % 1013,5 hPa 0,0 l/m 0,0 km/h (0 Bft) O-NO 75 0 min 0,000 mm 0,0 UV-I 0 W/m 4,2 C 4,3 C 0,0 km/h (0 Bft) 0,00 %
11.10.2015 07:15 4,3 C 99 % 1013,5 hPa 0,3 l/m 0,0 km/h (0 Bft) O 83 0 min 0,000 mm 0,0 UV-I 0 W/m 4,2 C 4,3 C 0,0 km/h (0 Bft) 0,00 %
11.10.2015 07:20 4,4 C 99 % 1013,5 hPa 0,0 l/m 1,8 km/h (1 Bft) O 100 0 min 0,000 mm 0,0 UV-I 0 W/m 4,3 C 4,4 C 4,0 km/h (1 Bft) 0,00 %
11.10.2015 07:25 4,3 C 99 % 1013,6 hPa 0,0 l/m 2,9 km/h (1 Bft) O 96 0 min 0,000 mm 0,0 UV-I 0 W/m 4,2 C 4,3 C 4,0 km/h (1 Bft) 0,00 %
11.10.2015 07:30 4,3 C 99 % 1013,5 hPa 0,0 l/m 2,2 km/h (1 Bft) O-SO 110 0 min 0,000 mm 0,0 UV-I 0 W/m 4,2 C 4,3 C 4,0 km/h (1 Bft) 0,00 %
11.10.2015 07:35 4,3 C 99 % 1013,5 hPa 0,0 l/m 0,0 km/h (0 Bft) O 84 0 min 0,000 mm 0,0 UV-I 0 W/m 4,2 C 4,3 C 0,0 km/h (0 Bft) 0,00 %
11.10.2015 07:40 4,3 C 99 % 1013,5 hPa 0,3 l/m 2,2 km/h (1 Bft) O 81 0 min 0,000 mm 0,0 UV-I 0 W/m 4,2 C 4,3 C 4,0 km/h (1 Bft) 0,00 %
11.10.2015 07:45 4,3 C 99 % 1013,7 hPa 0,0 l/m 1,8 km/h (1 Bft) O-SO 106 0 min 0,000 mm 0,0 UV-I 0 W/m 4,2 C 4,3 C 4,0 km/h (1 Bft) 0,00 %
11.10.2015 07:50 4,3 C 99 % 1013,7 hPa 0,0 l/m 0,0 km/h (0 Bft) O-NO 71 0 min 0,000 mm 0,0 UV-I 3 W/m 4,2 C 4,3 C 0,0 km/h (0 Bft) 0,00 %
11.10.2015 07:55 4,3 C 99 % 1013,5 hPa 0,0 l/m 0,4 km/h (0 Bft) O-NO 65 0 min 0,000 mm 0,0 UV-I 1 W/m 4,2 C 4,3 C 4,0 km/h (1 Bft) 0,00 %
11.10.2015 08:00 4,3 C 99 % 1013,5 hPa 0,0 l/m 0,0 km/h (0 Bft) O-NO 62 0 min 0,000 mm 0,0 UV-I 6 W/m 4,2 C 4,3 C 0,0 km/h (0 Bft) 0,00 %
11.10.2015 08:05 4,4 C 99 % 1013,5 hPa 0,0 l/m 2,9 km/h (1 Bft) O-SO 106 0 min 0,000 mm 0,0 UV-I 8 W/m 4,3 C 4,4 C 4,0 km/h (1 Bft) 0,00 %
11.10.2015 08:10 4,3 C 99 % 1013,6 hPa 0,3 l/m 0,0 km/h (0 Bft) O-NO 69 0 min 0,000 mm 0,0 UV-I 9 W/m 4,2 C 4,3 C 0,0 km/h (0 Bft) 0,00 %
11.10.2015 08:15 4,3 C 99 % 1013,6 hPa 0,0 l/m 0,0 km/h (0 Bft) O-SO 122 0 min 0,000 mm 0,0 UV-I 17 W/m 4,2 C 4,3 C 0,0 km/h (0 Bft) 0,00 %
11.10.2015 08:20 4,3 C 99 % 1013,6 hPa 0,0 l/m 0,0 km/h (0 Bft) O-NO 66 0 min 0,000 mm 0,0 UV-I 19 W/m 4,2 C 4,3 C 0,0 km/h (0 Bft) 0,00 %
11.10.2015 08:25 4,4 C 99 % 1013,5 hPa 0,0 l/m 1,4 km/h (1 Bft) O-SO 105 0 min 0,000 mm 0,0 UV-I 19 W/m 4,3 C 4,4 C 4,0 km/h (1 Bft) 0,00 %
11.10.2015 08:30 4,4 C 99 % 1013,8 hPa 0,3 l/m 0,0 km/h (0 Bft) O 86 0 min 0,000 mm 0,0 UV-I 23 W/m 4,3 C 4,4 C 0,0 km/h (0 Bft) 0,00 %
11.10.2015 08:35 4,4 C 99 % 1013,6 hPa 0,0 l/m 0,0 km/h (0 Bft) O-NO 66 0 min 0,000 mm 0,0 UV-I 28 W/m 4,3 C 4,4 C 0,0 km/h (0 Bft) 0,00 %
11.10.2015 08:40 4,4 C 99 % 1013,7 hPa 0,0 l/m 1,8 km/h (1 Bft) SO 131 0 min 0,000 mm 0,0 UV-I 32 W/m 4,3 C 4,4 C 4,0 km/h (1 Bft) 0,00 %
11.10.2015 08:45 4,4 C 99 % 1014,0 hPa 0,0 l/m 0,4 km/h (0 Bft) O-NO 69 0 min 0,000 mm 0,0 UV-I 32 W/m 4,3 C 4,4 C 4,0 km/h (1 Bft) 0,00 %
11.10.2015 08:50 4,4 C 99 % 1013,9 hPa 0,3 l/m 0,4 km/h (0 Bft) O 92 0 min 0,000 mm 0,0 UV-I 34 W/m 4,3 C 4,4 C 4,0 km/h (1 Bft) 0,00 %
11.10.2015 08:55 4,5 C 99 % 1013,9 hPa 0,0 l/m 0,0 km/h (0 Bft) O 87 0 min 0,000 mm 0,0 UV-I 40 W/m 4,4 C 4,5 C 0,0 km/h (0 Bft) 0,00 %
11.10.2015 09:00 4,5 C 99 % 1014,0 hPa 0,0 l/m 0,0 km/h (0 Bft) O-NO 74 0 min 0,000 mm 0,0 UV-I 42 W/m 4,4 C 4,5 C 0,0 km/h (0 Bft) 0,00 %
11.10.2015 09:05 4,5 C 99 % 1014,0 hPa 0,0 l/m 0,0 km/h (0 Bft) O-NO 65 0 min 0,000 mm 0,0 UV-I 46 W/m 4,4 C 4,5 C 0,0 km/h (0 Bft) 0,00 %
11.10.2015 09:10 4,6 C 99 % 1014,0 hPa 0,0 l/m 0,0 km/h (0 Bft) O-NO 68 0 min 0,000 mm 0,0 UV-I 51 W/m 4,5 C 4,6 C 0,0 km/h (0 Bft) 0,00 %
11.10.2015 09:15 4,6 C 99 % 1014,0 hPa 0,3 l/m 0,7 km/h (0 Bft) NO 55 0 min 0,000 mm 0,0 UV-I 57 W/m 4,5 C 4,6 C 4,0 km/h (1 Bft) 0,00 %
11.10.2015 09:20 4,7 C 99 % 1014,2 hPa 0,0 l/m 0,0 km/h (0 Bft) O-SO 104 0 min 0,000 mm 0,0 UV-I 61 W/m 4,6 C 4,7 C 0,0 km/h (0 Bft) 0,00 %
11.10.2015 09:25 4,7 C 99 % 1014,1 hPa 0,0 l/m 0,0 km/h (0 Bft) O 92 0 min 0,000 mm 0,0 UV-I 69 W/m 4,6 C 4,7 C 0,0 km/h (0 Bft) 0,00 %
11.10.2015 09:30 4,7 C 99 % 1014,0 hPa 0,0 l/m 0,4 km/h (0 Bft) O 93 0 min 0,000 mm 0,0 UV-I 73 W/m 4,6 C 4,7 C 4,0 km/h (1 Bft) 0,00 %
11.10.2015 09:35 4,7 C 99 % 1014,0 hPa 0,3 l/m 0,0 km/h (0 Bft) O-NO 74 0 min 0,000 mm 0,0 UV-I 75 W/m 4,6 C 4,7 C 0,0 km/h (0 Bft) 0,00 %
11.10.2015 09:40 4,7 C 99 % 1013,9 hPa 0,0 l/m 2,2 km/h (1 Bft) SO 129 0 min 0,000 mm 0,0 UV-I 81 W/m 4,6 C 4,7 C 4,0 km/h (1 Bft) 0,00 %
11.10.2015 09:45 4,7 C 99 % 1014,0 hPa 0,0 l/m 0,0 km/h (0 Bft) SO 136 0 min 0,000 mm 0,0 UV-I 77 W/m 4,6 C 4,7 C 0,0 km/h (0 Bft) 0,00 %
11.10.2015 09:50 4,7 C 99 % 1014,1 hPa 0,0 l/m 0,0 km/h (0 Bft) O-NO 73 0 min 0,000 mm 0,0 UV-I 78 W/m 4,6 C 4,7 C 0,0 km/h (0 Bft) 0,00 %
11.10.2015 09:55 4,8 C 99 % 1014,0 hPa 0,0 l/m 0,0 km/h (0 Bft) O 92 0 min 0,000 mm 0,0 UV-I 81 W/m 4,7 C 4,8 C 0,0 km/h (0 Bft) 0,00 %
11.10.2015 10:00 4,8 C 99 % 1014,1 hPa 0,0 l/m 1,8 km/h (1 Bft) O 92 0 min 0,000 mm 0,0 UV-I 84 W/m 4,7 C 4,8 C 4,0 km/h (1 Bft) 0,00 %
11.10.2015 10:05 4,9 C 99 % 1014,1 hPa 0,0 l/m 0,0 km/h (0 Bft) O-NO 58 0 min 0,000 mm 0,0 UV-I 89 W/m 4,8 C 4,9 C 0,0 km/h (0 Bft) 0,00 %
11.10.2015 10:10 4,9 C 98 % 1014,0 hPa 0,0 l/m 0,0 km/h (0 Bft) O 83 0 min 0,000 mm 0,0 UV-I 109 W/m 4,6 C 4,9 C 0,0 km/h (0 Bft) 0,00 %
11.10.2015 10:15 5,1 C 98 % 1014,4 hPa 0,0 l/m 0,4 km/h (0 Bft) O 92 0 min 0,000 mm 0,0 UV-I 110 W/m 4,8 C 5,1 C 4,0 km/h (1 Bft) 0,00 %
11.10.2015 10:20 5,1 C 98 % 1014,3 hPa 0,0 l/m 0,0 km/h (0 Bft) O 97 0 min 0,000 mm 0,0 UV-I 137 W/m 4,8 C 5,1 C 0,0 km/h (0 Bft) 0,00 %
11.10.2015 10:25 5,0 C 98 % 1014,2 hPa 0,3 l/m 1,8 km/h (1 Bft) O 90 0 min 0,000 mm 0,0 UV-I 149 W/m 4,7 C 5,0 C 4,0 km/h (1 Bft) 0,00 %
11.10.2015 10:30 5,1 C 98 % 1014,2 hPa 0,0 l/m 0,0 km/h (0 Bft) O-SO 105 0 min 0,000 mm 0,0 UV-I 155 W/m 4,8 C 5,1 C 0,0 km/h (0 Bft) 0,00 %
11.10.2015 10:35 5,2 C 98 % 1014,1 hPa 0,0 l/m 0,7 km/h (0 Bft) SO 132 0 min 0,000 mm 0,0 UV-I 153 W/m 4,9 C 5,2 C 4,0 km/h (1 Bft) 0,00 %
11.10.2015 10:40 5,2 C 98 % 1014,1 hPa 0,0 l/m 0,0 km/h (0 Bft) O 87 0 min 0,000 mm 1,0 UV-I 152 W/m 4,9 C 5,2 C 0,0 km/h (0 Bft) 0,00 %
11.10.2015 10:45 5,3 C 98 % 1014,2 hPa 0,0 l/m 0,4 km/h (0 Bft) O 100 0 min 0,000 mm 1,0 UV-I 157 W/m 5,0 C 5,3 C 4,0 km/h (1 Bft) 0,00 %
11.10.2015 10:50 5,4 C 98 % 1014,1 hPa 0,0 l/m 0,0 km/h (0 Bft) NO 45 0 min 0,000 mm 1,0 UV-I 163 W/m 5,1 C 5,4 C 0,0 km/h (0 Bft) 0,00 %
11.10.2015 10:55 5,5 C 98 % 1014,2 hPa 0,0 l/m 0,4 km/h (0 Bft) O 92 0 min 0,000 mm 1,0 UV-I 174 W/m 5,2 C 5,5 C 4,0 km/h (1 Bft) 0,00 %
11.10.2015 11:00 5,5 C 98 % 1014,0 hPa 0,0 l/m 0,0 km/h (0 Bft) O-NO 60 0 min 0,000 mm 1,0 UV-I 184 W/m 5,2 C 5,5 C 0,0 km/h (0 Bft) 0,00 %
11.10.2015 11:05 5,6 C 98 % 1014,1 hPa 0,0 l/m 0,0 km/h (0 Bft) O-NO 60 0 min 0,000 mm 1,0 UV-I 197 W/m 5,3 C 5,6 C 0,0 km/h (0 Bft) 0,00 %
11.10.2015 11:10 5,6 C 98 % 1014,0 hPa 0,0 l/m 0,0 km/h (0 Bft) O-NO 61 0 min 0,000 mm 1,0 UV-I 213 W/m 5,3 C 5,6 C 0,0 km/h (0 Bft) 0,00 %
11.10.2015 11:15 5,7 C 98 % 1014,1 hPa 0,0 l/m 0,0 km/h (0 Bft) O 95 0 min 0,000 mm 1,0 UV-I 213 W/m 5,4 C 5,7 C 0,0 km/h (0 Bft) 0,00 %
11.10.2015 11:20 5,7 C 98 % 1014,3 hPa 0,0 l/m 0,0 km/h (0 Bft) O-NO 64 0 min 0,000 mm 1,0 UV-I 196 W/m 5,4 C 5,7 C 0,0 km/h (0 Bft) 0,00 %
11.10.2015 11:25 5,7 C 98 % 1014,4 hPa 0,0 l/m 0,0 km/h (0 Bft) NO 49 0 min 0,000 mm 1,0 UV-I 176 W/m 5,4 C 5,7 C 0,0 km/h (0 Bft) 0,00 %
11.10.2015 11:30 5,8 C 98 % 1014,2 hPa 0,0 l/m 0,4 km/h (0 Bft) O 90 0 min 0,000 mm 1,0 UV-I 153 W/m 5,5 C 5,8 C 4,0 km/h (1 Bft) 0,00 %
11.10.2015 11:35 5,8 C 98 % 1014,3 hPa 0,0 l/m 0,0 km/h (0 Bft) O 85 0 min 0,000 mm 0,0 UV-I 129 W/m 5,5 C 5,8 C 0,0 km/h (0 Bft) 0,00 %
11.10.2015 11:40 5,7 C 98 % 1014,3 hPa 0,0 l/m 2,2 km/h (1 Bft) O 92 0 min 0,000 mm 0,0 UV-I 120 W/m 5,4 C 5,7 C 4,0 km/h (1 Bft) 0,00 %
11.10.2015 11:45 5,5 C 98 % 1014,4 hPa 0,0 l/m 0,0 km/h (0 Bft) O-NO 62 0 min 0,000 mm 1,0 UV-I 147 W/m 5,2 C 5,5 C 0,0 km/h (0 Bft) 0,00 %
11.10.2015 11:50 5,4 C 98 % 1014,4 hPa 0,0 l/m 0,0 km/h (0 Bft) O 86 0 min 0,000 mm 1,0 UV-I 172 W/m 5,1 C 5,4 C 0,0 km/h (0 Bft) 0,00 %
11.10.2015 11:55 5,6 C 98 % 1014,2 hPa 0,0 l/m 0,0 km/h (0 Bft) O-SO 104 0 min 0,000 mm 1,0 UV-I 167 W/m 5,3 C 5,6 C 0,0 km/h (0 Bft) 0,00 %
11.10.2015 12:00 5,7 C 98 % 1014,5 hPa 0,0 l/m 0,0 km/h (0 Bft) O-NO 61 0 min 0,000 mm 0,0 UV-I 140 W/m 5,4 C 5,7 C 0,0 km/h (0 Bft) 0,00 %
11.10.2015 12:05 5,6 C 98 % 1014,4 hPa 0,0 l/m 0,0 km/h (0 Bft) O-SO 117 0 min 0,000 mm 0,0 UV-I 124 W/m 5,3 C 5,6 C 0,0 km/h (0 Bft) 0,00 %
11.10.2015 12:10 5,4 C 98 % 1014,3 hPa 0,0 l/m 0,0 km/h (0 Bft) O 86 0 min 0,000 mm 0,0 UV-I 112 W/m 5,1 C 5,4 C 0,0 km/h (0 Bft) 0,00 %
11.10.2015 12:15 5,4 C 98 % 1014,4 hPa 0,0 l/m 0,0 km/h (0 Bft) O 93 0 min 0,000 mm 0,0 UV-I 103 W/m 5,1 C 5,4 C 0,0 km/h (0 Bft) 0,00 %
11.10.2015 12:20 5,5 C 98 % 1014,5 hPa 0,0 l/m 0,0 km/h (0 Bft) O 88 0 min 0,000 mm 1,0 UV-I 132 W/m 5,2 C 5,5 C 0,0 km/h (0 Bft) 0,00 %
11.10.2015 12:25 5,5 C 98 % 1014,3 hPa 0,0 l/m 0,0 km/h (0 Bft) O-NO 66 0 min 0,000 mm 1,0 UV-I 149 W/m 5,2 C 5,5 C 0,0 km/h (0 Bft) 0,00 %
11.10.2015 12:30 5,7 C 98 % 1014,4 hPa 0,0 l/m 0,0 km/h (0 Bft) O-NO 60 0 min 0,000 mm 1,0 UV-I 140 W/m 5,4 C 5,7 C 0,0 km/h (0 Bft) 0,00 %
11.10.2015 12:35 5,6 C 98 % 1014,3 hPa 0,0 l/m 0,0 km/h (0 Bft) NO 53 0 min 0,000 mm 1,0 UV-I 141 W/m 5,3 C 5,6 C 0,0 km/h (0 Bft) 0,00 %
11.10.2015 12:40 5,5 C 98 % 1014,4 hPa 0,0 l/m 0,0 km/h (0 Bft) O-NO 61 0 min 0,000 mm 1,0 UV-I 158 W/m 5,2 C 5,5 C 0,0 km/h (0 Bft) 0,00 %
11.10.2015 12:45 5,6 C 98 % 1014,3 hPa 0,0 l/m 0,0 km/h (0 Bft) O-NO 72 0 min 0,000 mm 1,0 UV-I 184 W/m 5,3 C 5,6 C 0,0 km/h (0 Bft) 0,00 %
11.10.2015 12:50 5,6 C 98 % 1014,1 hPa 0,0 l/m 0,0 km/h (0 Bft) O 95 0 min 0,000 mm 1,0 UV-I 235 W/m 5,3 C 5,6 C 0,0 km/h (0 Bft) 0,00 %
11.10.2015 12:55 5,7 C 97 % 1014,1 hPa 0,0 l/m 0,0 km/h (0 Bft) O-NO 63 0 min 0,000 mm 1,0 UV-I 258 W/m 5,3 C 5,7 C 0,0 km/h (0 Bft) 0,00 %
11.10.2015 13:00 5,9 C 97 % 1014,1 hPa 0,0 l/m 0,0 km/h (0 Bft) O 80 0 min 0,000 mm 1,0 UV-I 247 W/m 5,5 C 5,9 C 0,0 km/h (0 Bft) 0,00 %
11.10.2015 13:05 6,1 C 97 % 1014,1 hPa 0,0 l/m 0,0 km/h (0 Bft) O-NO 68 0 min 0,000 mm 1,0 UV-I 256 W/m 5,7 C 6,1 C 0,0 km/h (0 Bft) 0,00 %
11.10.2015 13:10 6,3 C 97 % 1013,4 hPa 0,0 l/m 0,0 km/h (0 Bft) O 87 0 min 0,000 mm 1,0 UV-I 301 W/m 5,9 C 6,3 C 0,0 km/h (0 Bft) 0,00 %
11.10.2015 13:15 6,4 C 97 % 1014,0 hPa 0,0 l/m 0,0 km/h (0 Bft) NO 49 5 min 0,000 mm 1,0 UV-I 338 W/m 6,0 C 6,4 C 0,0 km/h (0 Bft) 0,00 %
11.10.2015 13:20 6,7 C 97 % 1013,9 hPa 0,0 l/m 0,0 km/h (0 Bft) O-NO 62 5 min 0,000 mm 1,0 UV-I 355 W/m 6,3 C 6,7 C 0,0 km/h (0 Bft) 0,00 %
11.10.2015 13:25 6,8 C 97 % 1013,8 hPa 0,0 l/m 0,0 km/h (0 Bft) O-NO 61 5 min 0,000 mm 1,0 UV-I 406 W/m 6,4 C 6,8 C 0,0 km/h (0 Bft) 0,00 %
11.10.2015 13:30 6,8 C 99 % 1013,8 hPa 0,0 l/m 0,0 km/h (0 Bft) O-NO 66 5 min 0,000 mm 1,0 UV-I 413 W/m 6,7 C 6,8 C 0,0 km/h (0 Bft) 0,00 %
11.10.2015 13:35 6,8 C 99 % 1013,7 hPa 0,0 l/m 0,0 km/h (0 Bft) NO 51 5 min 0,000 mm 1,0 UV-I 475 W/m 6,7 C 6,8 C 0,0 km/h (0 Bft) 0,00 %
11.10.2015 13:40 6,9 C 97 % 1013,6 hPa 0,0 l/m 0,0 km/h (0 Bft) O-NO 59 5 min 0,000 mm 1,0 UV-I 498 W/m 6,5 C 6,9 C 0,0 km/h (0 Bft) 0,00 %
11.10.2015 13:45 6,8 C 97 % 1013,6 hPa 0,0 l/m 0,4 km/h (0 Bft) O-NO 59 5 min 0,000 mm 1,0 UV-I 477 W/m 6,4 C 6,8 C 4,0 km/h (1 Bft) 0,00 %
11.10.2015 13:50 6,9 C 97 % 1013,5 hPa 0,0 l/m 0,0 km/h (0 Bft) O-SO 103 5 min 0,000 mm 1,0 UV-I 507 W/m 6,5 C 6,9 C 0,0 km/h (0 Bft) 0,00 %
11.10.2015 13:55 7,1 C 95 % 1013,6 hPa 0,0 l/m 0,0 km/h (0 Bft) NO 37 5 min 0,000 mm 1,0 UV-I 536 W/m 6,4 C 7,1 C 0,0 km/h (0 Bft) 0,00 %
11.10.2015 14:00 7,0 C 95 % 1013,3 hPa 0,0 l/m 0,0 km/h (0 Bft) O 85 5 min 0,000 mm 1,0 UV-I 570 W/m 6,3 C 7,0 C 0,0 km/h (0 Bft) 0,00 %
11.10.2015 14:05 7,0 C 94 % 1013,3 hPa 0,0 l/m 0,0 km/h (0 Bft) O-NO 67 5 min 0,000 mm 1,0 UV-I 604 W/m 6,1 C 7,0 C 0,0 km/h (0 Bft) 0,00 %
11.10.2015 14:10 7,3 C 93 % 1013,2 hPa 0,0 l/m 0,0 km/h (0 Bft) O-NO 64 5 min 0,000 mm 1,0 UV-I 669 W/m 6,2 C 7,3 C 0,0 km/h (0 Bft) 0,00 %
11.10.2015 14:15 7,3 C 92 % 1013,2 hPa 0,0 l/m 0,0 km/h (0 Bft) NO 41 5 min 0,000 mm 1,0 UV-I 672 W/m 6,1 C 7,3 C 0,0 km/h (0 Bft) 0,00 %
11.10.2015 14:20 7,1 C 90 % 1013,3 hPa 0,0 l/m 0,0 km/h (0 Bft) NO 36 0 min 0,000 mm 1,0 UV-I 285 W/m 5,6 C 7,1 C 0,0 km/h (0 Bft) 0,00 %
11.10.2015 14:25 6,8 C 90 % 1013,5 hPa 0,0 l/m 0,0 km/h (0 Bft) O 88 0 min 0,000 mm 1,0 UV-I 194 W/m 5,3 C 6,8 C 0,0 km/h (0 Bft) 0,00 %
11.10.2015 14:30 6,5 C 90 % 1013,7 hPa 0,0 l/m 0,0 km/h (0 Bft) O-NO 63 5 min 0,000 mm 1,0 UV-I 598 W/m 5,0 C 6,5 C 0,0 km/h (0 Bft) 0,00 %
11.10.2015 14:35 6,6 C 92 % 1013,1 hPa 0,0 l/m 0,0 km/h (0 Bft) O 94 5 min 0,000 mm 1,0 UV-I 658 W/m 5,4 C 6,6 C 0,0 km/h (0 Bft) 0,00 %
11.10.2015 14:40 7,2 C 90 % 1012,9 hPa 0,0 l/m 0,7 km/h (0 Bft) O-NO 65 5 min 0,000 mm 1,0 UV-I 585 W/m 5,7 C 7,2 C 4,0 km/h (1 Bft) 0,00 %
11.10.2015 14:45 7,7 C 87 % 1013,0 hPa 0,0 l/m 0,0 km/h (0 Bft) O-NO 73 5 min 0,000 mm 1,0 UV-I 581 W/m 5,7 C 7,7 C 0,0 km/h (0 Bft) 0,00 %
11.10.2015 14:50 8,0 C 87 % 1012,9 hPa 0,0 l/m 0,4 km/h (0 Bft) O-SO 121 5 min 0,000 mm 1,0 UV-I 640 W/m 6,0 C 8,0 C 4,0 km/h (1 Bft) 0,00 %
11.10.2015 14:55 8,3 C 84 % 1012,9 hPa 0,0 l/m 0,0 km/h (0 Bft) O-NO 65 5 min 0,000 mm 1,0 UV-I 690 W/m 5,8 C 8,3 C 0,0 km/h (0 Bft) 0,00 %
11.10.2015 15:00 8,6 C 81 % 1013,0 hPa 0,0 l/m 0,0 km/h (0 Bft) NO 45 5 min 0,000 mm 1,0 UV-I 546 W/m 5,5 C 8,6 C 0,0 km/h (0 Bft) 0,00 %
11.10.2015 15:05 8,3 C 79 % 1013,4 hPa 0,0 l/m 0,0 km/h (0 Bft) O-NO 67 5 min 0,000 mm 1,0 UV-I 263 W/m 4,9 C 8,3 C 0,0 km/h (0 Bft) 0,00 %
11.10.2015 15:10 8,0 C 82 % 1012,8 hPa 0,0 l/m 0,0 km/h (0 Bft) O-NO 75 5 min 0,000 mm 1,0 UV-I 584 W/m 5,1 C 8,0 C 0,0 km/h (0 Bft) 0,00 %
11.10.2015 15:15 8,3 C 79 % 1013,2 hPa 0,0 l/m 4,3 km/h (1 Bft) O-NO 70 0 min 0,000 mm 1,0 UV-I 225 W/m 4,9 C 8,3 C 7,9 km/h (2 Bft) 0,00 %
11.10.2015 15:20 8,4 C 74 % 1013,3 hPa 0,0 l/m 0,0 km/h (0 Bft) NO 44 0 min 0,000 mm 1,0 UV-I 215 W/m 4,0 C 8,4 C 0,0 km/h (0 Bft) 0,00 %
11.10.2015 15:25 8,3 C 73 % 1013,5 hPa 0,0 l/m 0,0 km/h (0 Bft) NO 52 0 min 0,000 mm 1,0 UV-I 180 W/m 3,8 C 8,3 C 0,0 km/h (0 Bft) 0,00 %
11.10.2015 15:30 8,2 C 73 % 1013,3 hPa 0,0 l/m 0,0 km/h (0 Bft) O-NO 57 0 min 0,000 mm 1,0 UV-I 188 W/m 3,7 C 8,2 C 0,0 km/h (0 Bft) 0,00 %
11.10.2015 15:35 8,2 C 74 % 1013,4 hPa 0,0 l/m 0,0 km/h (0 Bft) N 355 0 min 0,000 mm 1,0 UV-I 223 W/m 3,8 C 8,2 C 0,0 km/h (0 Bft) 0,00 %
11.10.2015 15:40 8,2 C 73 % 1013,6 hPa 0,0 l/m 0,0 km/h (0 Bft) N-NO 25 0 min 0,000 mm 1,0 UV-I 213 W/m 3,7 C 8,2 C 0,0 km/h (0 Bft) 0,00 %
11.10.2015 15:45 8,1 C 73 % 1013,4 hPa 0,0 l/m 0,0 km/h (0 Bft) NO 46 5 min 0,000 mm 1,0 UV-I 251 W/m 3,6 C 8,1 C 0,0 km/h (0 Bft) 0,00 %
11.10.2015 15:50 8,1 C 73 % 1013,5 hPa 0,0 l/m 0,0 km/h (0 Bft) O-NO 61 5 min 0,000 mm 1,0 UV-I 236 W/m 3,6 C 8,1 C 0,0 km/h (0 Bft) 0,00 %
11.10.2015 15:55 8,2 C 72 % 1013,4 hPa 0,0 l/m 0,0 km/h (0 Bft) O 82 5 min 0,000 mm 1,0 UV-I 216 W/m 3,5 C 8,2 C 0,0 km/h (0 Bft) 0,00 %
11.10.2015 16:00 8,3 C 72 % 1013,0 hPa 0,0 l/m 0,0 km/h (0 Bft) O-NO 57 5 min 0,000 mm 1,0 UV-I 485 W/m 3,6 C 8,3 C 0,0 km/h (0 Bft) 0,00 %
11.10.2015 16:05 8,4 C 71 % 1012,9 hPa 0,0 l/m 0,0 km/h (0 Bft) O-NO 64 5 min 0,000 mm 1,0 UV-I 514 W/m 3,5 C 8,4 C 0,0 km/h (0 Bft) 0,00 %
11.10.2015 16:10 8,6 C 72 % 1013,0 hPa 0,0 l/m 0,7 km/h (0 Bft) O-NO 66 5 min 0,000 mm 1,0 UV-I 500 W/m 3,8 C 8,6 C 4,0 km/h (1 Bft) 0,00 %
11.10.2015 16:15 8,8 C 72 % 1012,9 hPa 0,0 l/m 0,0 km/h (0 Bft) O-NO 59 5 min 0,000 mm 1,0 UV-I 484 W/m 4,0 C 8,8 C 0,0 km/h (0 Bft) 0,00 %
11.10.2015 16:20 8,9 C 71 % 1013,0 hPa 0,0 l/m 0,0 km/h (0 Bft) O-NO 62 5 min 0,000 mm 1,0 UV-I 459 W/m 3,9 C 8,9 C 0,0 km/h (0 Bft) 0,00 %
11.10.2015 16:25 9,1 C 69 % 1013,0 hPa 0,0 l/m 0,0 km/h (0 Bft) O-NO 63 5 min 0,000 mm 1,0 UV-I 476 W/m 3,7 C 9,1 C 0,0 km/h (0 Bft) 0,00 %
11.10.2015 16:30 9,2 C 70 % 1013,0 hPa 0,0 l/m 0,0 km/h (0 Bft) O-NO 68 5 min 0,000 mm 1,0 UV-I 450 W/m 4,0 C 9,2 C 0,0 km/h (0 Bft) 0,00 %
11.10.2015 16:35 9,4 C 70 % 1013,2 hPa 0,0 l/m 0,0 km/h (0 Bft) O-NO 59 5 min 0,000 mm 1,0 UV-I 438 W/m 4,2 C 9,4 C 0,0 km/h (0 Bft) 0,00 %
11.10.2015 16:40 9,6 C 69 % 1013,0 hPa 0,0 l/m 0,0 km/h (0 Bft) NO 50 5 min 0,000 mm 1,0 UV-I 418 W/m 4,2 C 9,6 C 0,0 km/h (0 Bft) 0,00 %
11.10.2015 16:45 9,7 C 67 % 1013,2 hPa 0,0 l/m 0,0 km/h (0 Bft) O-NO 63 5 min 0,000 mm 1,0 UV-I 397 W/m 3,9 C 9,7 C 0,0 km/h (0 Bft) 0,00 %
11.10.2015 16:50 9,8 C 66 % 1013,2 hPa 0,0 l/m 0,0 km/h (0 Bft) SO 127 5 min 0,000 mm 1,0 UV-I 373 W/m 3,8 C 9,8 C 0,0 km/h (0 Bft) 0,00 %
11.10.2015 16:55 9,9 C 63 % 1013,2 hPa 0,0 l/m 0,0 km/h (0 Bft) O-SO 116 5 min 0,000 mm 1,0 UV-I 348 W/m 3,2 C 9,9 C 0,0 km/h (0 Bft) 0,00 %
11.10.2015 17:00 10,1 C 64 % 1013,2 hPa 0,0 l/m 0,0 km/h (0 Bft) O 100 5 min 0,000 mm 1,0 UV-I 320 W/m 3,6 C 10,1 C 0,0 km/h (0 Bft) 0,00 %
11.10.2015 17:05 10,3 C 62 % 1013,3 hPa 0,0 l/m 0,0 km/h (0 Bft) O-NO 67 5 min 0,000 mm 1,0 UV-I 301 W/m 3,3 C 10,3 C 0,0 km/h (0 Bft) 0,00 %
11.10.2015 17:10 10,4 C 63 % 1013,4 hPa 0,0 l/m 0,0 km/h (0 Bft) O-SO 116 5 min 0,000 mm 0,0 UV-I 276 W/m 3,7 C 10,4 C 0,0 km/h (0 Bft) 0,00 %
11.10.2015 17:15 10,4 C 65 % 1013,6 hPa 0,0 l/m 0,0 km/h (0 Bft) NW 319 5 min 0,000 mm 0,0 UV-I 275 W/m 4,1 C 10,4 C 0,0 km/h (0 Bft) 0,00 %
11.10.2015 17:20 10,3 C 62 % 1013,7 hPa 0,0 l/m 0,0 km/h (0 Bft) S-SO 149 5 min 0,000 mm 0,0 UV-I 193 W/m 3,3 C 10,3 C 0,0 km/h (0 Bft) 0,00 %
11.10.2015 17:25 10,5 C 62 % 1014,0 hPa 0,0 l/m 0,0 km/h (0 Bft) O-NO 66 5 min 0,000 mm 0,0 UV-I 93 W/m 3,5 C 10,5 C 0,0 km/h (0 Bft) 0,00 %
11.10.2015 17:30 10,5 C 63 % 1014,1 hPa 0,0 l/m 0,0 km/h (0 Bft) S-SO 149 5 min 0,000 mm 0,0 UV-I 79 W/m 3,8 C 10,5 C 0,0 km/h (0 Bft) 0,00 %
11.10.2015 17:35 10,3 C 65 % 1013,7 hPa 0,0 l/m 0,0 km/h (0 Bft) NO 52 5 min 0,000 mm 0,0 UV-I 138 W/m 4,0 C 10,3 C 0,0 km/h (0 Bft) 0,00 %
11.10.2015 17:40 10,1 C 66 % 1013,6 hPa 0,0 l/m 0,0 km/h (0 Bft) O 87 5 min 0,000 mm 0,0 UV-I 113 W/m 4,0 C 10,1 C 0,0 km/h (0 Bft) 0,00 %
11.10.2015 17:45 10,1 C 66 % 1013,6 hPa 0,0 l/m 0,0 km/h (0 Bft) NO 53 5 min 0,000 mm 0,0 UV-I 96 W/m 4,0 C 10,1 C 0,0 km/h (0 Bft) 0,00 %
11.10.2015 17:50 9,9 C 68 % 1013,6 hPa 0,0 l/m 0,0 km/h (0 Bft) O-NO 57 5 min 0,000 mm 0,0 UV-I 82 W/m 4,3 C 9,9 C 0,0 km/h (0 Bft) 0,00 %
11.10.2015 17:55 9,7 C 70 % 1013,8 hPa 0,0 l/m 0,0 km/h (0 Bft) S 180 5 min 0,000 mm 0,0 UV-I 60 W/m 4,5 C 9,7 C 0,0 km/h (0 Bft) 0,00 %
11.10.2015 18:00 9,5 C 70 % 1014,1 hPa 0,0 l/m 0,0 km/h (0 Bft) O-NO 74 5 min 0,000 mm 0,0 UV-I 40 W/m 4,3 C 9,5 C 0,0 km/h (0 Bft) 0,00 %
11.10.2015 18:05 9,3 C 71 % 1014,4 hPa 0,0 l/m 0,0 km/h (0 Bft) NO 56 0 min 0,000 mm 0,0 UV-I 20 W/m 4,3 C 9,3 C 0,0 km/h (0 Bft) 0,00 %
11.10.2015 18:10 9,1 C 73 % 1014,7 hPa 0,0 l/m 0,0 km/h (0 Bft) O-NO 73 0 min 0,000 mm 0,0 UV-I 6 W/m 4,5 C 9,1 C 0,0 km/h (0 Bft) 0,00 %
11.10.2015 18:15 8,9 C 73 % 1014,3 hPa 0,0 l/m 0,0 km/h (0 Bft) O 95 0 min 0,000 mm 0,0 UV-I 1 W/m 4,3 C 8,9 C 0,0 km/h (0 Bft) 0,00 %
11.10.2015 18:20 8,6 C 74 % 1014,4 hPa 0,0 l/m 0,0 km/h (0 Bft) O-NO 61 0 min 0,000 mm 0,0 UV-I 0 W/m 4,2 C 8,6 C 0,0 km/h (0 Bft) 0,00 %
11.10.2015 18:25 8,3 C 78 % 1014,6 hPa 0,0 l/m 0,0 km/h (0 Bft) O-NO 59 0 min 0,000 mm 0,0 UV-I 0 W/m 4,7 C 8,3 C 0,0 km/h (0 Bft) 0,00 %
11.10.2015 18:30 7,9 C 80 % 1014,7 hPa 0,0 l/m 0,0 km/h (0 Bft) O-NO 65 0 min 0,000 mm 0,0 UV-I 0 W/m 4,7 C 7,9 C 0,0 km/h (0 Bft) 0,00 %
11.10.2015 18:35 7,4 C 79 % 1014,6 hPa 0,0 l/m 0,0 km/h (0 Bft) O-NO 58 0 min 0,000 mm 0,0 UV-I 0 W/m 4,0 C 7,4 C 0,0 km/h (0 Bft) 0,00 %
11.10.2015 18:40 7,0 C 80 % 1014,5 hPa 0,0 l/m 0,0 km/h (0 Bft) O-NO 75 0 min 0,000 mm 0,0 UV-I 0 W/m 3,8 C 7,0 C 0,0 km/h (0 Bft) 0,00 %
11.10.2015 18:45 6,7 C 80 % 1014,5 hPa 0,0 l/m 0,0 km/h (0 Bft) O-NO 67 0 min 0,000 mm 0,0 UV-I 0 W/m 3,5 C 6,7 C 0,0 km/h (0 Bft) 0,00 %
11.10.2015 18:50 6,4 C 81 % 1014,6 hPa 0,0 l/m 0,0 km/h (0 Bft) O-NO 63 0 min 0,000 mm 0,0 UV-I 0 W/m 3,4 C 6,4 C 0,0 km/h (0 Bft) 0,00 %
11.10.2015 18:55 6,3 C 83 % 1014,6 hPa 0,0 l/m 0,0 km/h (0 Bft) NO 49 0 min 0,000 mm 0,0 UV-I 0 W/m 3,6 C 6,3 C 0,0 km/h (0 Bft) 0,00 %
11.10.2015 19:00 6,2 C 86 % 1014,8 hPa 0,0 l/m 0,0 km/h (0 Bft) O-NO 63 0 min 0,000 mm 0,0 UV-I 0 W/m 4,0 C 6,2 C 0,0 km/h (0 Bft) 0,00 %
11.10.2015 19:05 6,0 C 86 % 1014,8 hPa 0,0 l/m 0,0 km/h (0 Bft) O 84 0 min 0,000 mm 0,0 UV-I 0 W/m 3,8 C 6,0 C 0,0 km/h (0 Bft) 0,00 %
11.10.2015 19:10 6,0 C 87 % 1014,9 hPa 0,0 l/m 0,0 km/h (0 Bft) O-NO 63 0 min 0,000 mm 0,0 UV-I 0 W/m 4,0 C 6,0 C 0,0 km/h (0 Bft) 0,00 %
11.10.2015 19:15 6,0 C 88 % 1015,0 hPa 0,0 l/m 0,0 km/h (0 Bft) O-NO 71 0 min 0,000 mm 0,0 UV-I 0 W/m 4,2 C 6,0 C 0,0 km/h (0 Bft) 0,00 %
11.10.2015 19:20 6,2 C 86 % 1015,0 hPa 0,0 l/m 0,0 km/h (0 Bft) O-NO 70 0 min 0,000 mm 0,0 UV-I 0 W/m 4,0 C 6,2 C 0,0 km/h (0 Bft) 0,00 %
11.10.2015 19:25 6,2 C 85 % 1015,1 hPa 0,0 l/m 0,0 km/h (0 Bft) O-NO 57 0 min 0,000 mm 0,0 UV-I 0 W/m 3,9 C 6,2 C 0,0 km/h (0 Bft) 0,00 %
11.10.2015 19:30 6,3 C 83 % 1015,2 hPa 0,0 l/m 0,0 km/h (0 Bft) O-NO 73 0 min 0,000 mm 0,0 UV-I 0 W/m 3,6 C 6,3 C 0,0 km/h (0 Bft) 0,00 %
11.10.2015 19:35 6,4 C 83 % 1015,2 hPa 0,0 l/m 0,0 km/h (0 Bft) O-NO 74 0 min 0,000 mm 0,0 UV-I 0 W/m 3,7 C 6,4 C 0,0 km/h (0 Bft) 0,00 %
11.10.2015 19:40 6,4 C 83 % 1015,2 hPa 0,0 l/m 0,0 km/h (0 Bft) O-NO 62 0 min 0,000 mm 0,0 UV-I 0 W/m 3,7 C 6,4 C 0,0 km/h (0 Bft) 0,00 %
11.10.2015 19:45 6,3 C 85 % 1015,3 hPa 0,0 l/m 0,0 km/h (0 Bft) O-NO 71 0 min 0,000 mm 0,0 UV-I 0 W/m 4,0 C 6,3 C 0,0 km/h (0 Bft) 0,00 %
11.10.2015 19:50 6,2 C 86 % 1015,3 hPa 0,0 l/m 0,0 km/h (0 Bft) O-NO 78 0 min 0,000 mm 0,0 UV-I 0 W/m 4,0 C 6,2 C 0,0 km/h (0 Bft) 0,00 %
11.10.2015 19:55 6,1 C 87 % 1015,4 hPa 0,0 l/m 0,0 km/h (0 Bft) O-NO 71 0 min 0,000 mm 0,0 UV-I 0 W/m 4,1 C 6,1 C 0,0 km/h (0 Bft) 0,00 %
11.10.2015 20:00 6,0 C 88 % 1015,2 hPa 0,0 l/m 0,0 km/h (0 Bft) O-NO 72 0 min 0,000 mm 0,0 UV-I 0 W/m 4,2 C 6,0 C 0,0 km/h (0 Bft) 0,00 %
11.10.2015 20:05 5,9 C 85 % 1015,2 hPa 0,0 l/m 0,0 km/h (0 Bft) O-NO 61 0 min 0,000 mm 0,0 UV-I 0 W/m 3,6 C 5,9 C 0,0 km/h (0 Bft) 0,00 %
11.10.2015 20:10 6,0 C 84 % 1015,3 hPa 0,0 l/m 0,0 km/h (0 Bft) O-NO 61 0 min 0,000 mm 0,0 UV-I 0 W/m 3,5 C 6,0 C 0,0 km/h (0 Bft) 0,00 %
11.10.2015 20:15 6,1 C 81 % 1015,3 hPa 0,0 l/m 0,0 km/h (0 Bft) O-NO 65 0 min 0,000 mm 0,0 UV-I 0 W/m 3,1 C 6,1 C 0,0 km/h (0 Bft) 0,00 %
11.10.2015 20:20 6,3 C 76 % 1015,4 hPa 0,0 l/m 2,2 km/h (1 Bft) O-NO 77 0 min 0,000 mm 0,0 UV-I 0 W/m 2,4 C 6,3 C 4,0 km/h (1 Bft) 0,00 %
11.10.2015 20:25 6,5 C 73 % 1015,5 hPa 0,0 l/m 2,9 km/h (1 Bft) O-NO 59 0 min 0,000 mm 0,0 UV-I 0 W/m 2,0 C 6,5 C 4,0 km/h (1 Bft) 0,00 %
11.10.2015 20:30 6,7 C 72 % 1015,4 hPa 0,0 l/m 0,0 km/h (0 Bft) O-NO 70 0 min 0,000 mm 0,0 UV-I 0 W/m 2,0 C 6,7 C 0,0 km/h (0 Bft) 0,00 %
11.10.2015 20:35 6,7 C 76 % 1015,4 hPa 0,0 l/m 0,0 km/h (0 Bft) O-NO 70 0 min 0,000 mm 0,0 UV-I 0 W/m 2,8 C 6,7 C 0,0 km/h (0 Bft) 0,00 %
11.10.2015 20:40 6,6 C 78 % 1015,5 hPa 0,0 l/m 0,0 km/h (0 Bft) O-NO 71 0 min 0,000 mm 0,0 UV-I 0 W/m 3,0 C 6,6 C 0,0 km/h (0 Bft) 0,00 %
11.10.2015 20:45 6,4 C 78 % 1015,6 hPa 0,0 l/m 2,2 km/h (1 Bft) SO 128 0 min 0,000 mm 0,0 UV-I 0 W/m 2,8 C 6,4 C 4,0 km/h (1 Bft) 0,00 %
11.10.2015 20:50 6,4 C 75 % 1015,7 hPa 0,0 l/m 0,4 km/h (0 Bft) O 86 0 min 0,000 mm 0,0 UV-I 0 W/m 2,3 C 6,4 C 4,0 km/h (1 Bft) 0,00 %
11.10.2015 20:55 6,4 C 75 % 1015,7 hPa 0,0 l/m 0,0 km/h (0 Bft) O-NO 70 0 min 0,000 mm 0,0 UV-I 0 W/m 2,3 C 6,4 C 0,0 km/h (0 Bft) 0,00 %
11.10.2015 21:00 6,4 C 74 % 1015,7 hPa 0,0 l/m 0,0 km/h (0 Bft) O-NO 77 0 min 0,000 mm 0,0 UV-I 0 W/m 2,1 C 6,4 C 0,0 km/h (0 Bft) 0,00 %
11.10.2015 21:05 6,4 C 73 % 1015,6 hPa 0,0 l/m 0,0 km/h (0 Bft) O-NO 72 0 min 0,000 mm 0,0 UV-I 0 W/m 1,9 C 6,4 C 0,0 km/h (0 Bft) 0,00 %
11.10.2015 21:10 6,3 C 74 % 1015,7 hPa 0,0 l/m 0,0 km/h (0 Bft) O-NO 58 0 min 0,000 mm 0,0 UV-I 0 W/m 2,0 C 6,3 C 0,0 km/h (0 Bft) 0,00 %
11.10.2015 21:15 6,2 C 73 % 1015,8 hPa 0,0 l/m 0,0 km/h (0 Bft) NO 50 0 min 0,000 mm 0,0 UV-I 0 W/m 1,7 C 6,2 C 0,0 km/h (0 Bft) 0,00 %
11.10.2015 21:20 6,2 C 72 % 1015,9 hPa 0,0 l/m 4,0 km/h (1 Bft) O-NO 70 0 min 0,000 mm 0,0 UV-I 0 W/m 1,5 C 6,2 C 4,0 km/h (1 Bft) 0,00 %
11.10.2015 21:25 6,1 C 73 % 1016,0 hPa 0,0 l/m 0,0 km/h (0 Bft) NO 39 0 min 0,000 mm 0,0 UV-I 0 W/m 1,6 C 6,1 C 0,0 km/h (0 Bft) 0,00 %
11.10.2015 21:30 6,1 C 71 % 1015,8 hPa 0,0 l/m 0,0 km/h (0 Bft) NO 43 0 min 0,000 mm 0,0 UV-I 0 W/m 1,2 C 6,1 C 0,0 km/h (0 Bft) 0,00 %
11.10.2015 21:35 6,0 C 72 % 1016,0 hPa 0,0 l/m 0,0 km/h (0 Bft) O-NO 62 0 min 0,000 mm 0,0 UV-I 0 W/m 1,3 C 6,0 C 0,0 km/h (0 Bft) 0,00 %
11.10.2015 21:40 5,9 C 73 % 1015,9 hPa 0,0 l/m 0,0 km/h (0 Bft) NO 40 0 min 0,000 mm 0,0 UV-I 0 W/m 1,4 C 5,9 C 0,0 km/h (0 Bft) 0,00 %
11.10.2015 21:45 5,9 C 72 % 1015,9 hPa 0,0 l/m 0,0 km/h (0 Bft) O-NO 65 0 min 0,000 mm 0,0 UV-I 0 W/m 1,2 C 5,9 C 0,0 km/h (0 Bft) 0,00 %
11.10.2015 21:50 5,8 C 72 % 1015,9 hPa 0,0 l/m 0,0 km/h (0 Bft) NO 41 0 min 0,000 mm 0,0 UV-I 0 W/m 1,2 C 5,8 C 0,0 km/h (0 Bft) 0,00 %
11.10.2015 21:55 5,8 C 72 % 1016,0 hPa 0,0 l/m 0,0 km/h (0 Bft) NO 56 0 min 0,000 mm 0,0 UV-I 0 W/m 1,2 C 5,8 C 0,0 km/h (0 Bft) 0,00 %
11.10.2015 22:00 5,7 C 73 % 1016,1 hPa 0,0 l/m 0,0 km/h (0 Bft) O-NO 66 0 min 0,000 mm 0,0 UV-I 0 W/m 1,2 C 5,7 C 0,0 km/h (0 Bft) 0,00 %
11.10.2015 22:05 5,6 C 74 % 1015,9 hPa 0,0 l/m 0,0 km/h (0 Bft) O-NO 61 0 min 0,000 mm 0,0 UV-I 0 W/m 1,3 C 5,6 C 0,0 km/h (0 Bft) 0,00 %
11.10.2015 22:10 5,5 C 74 % 1016,0 hPa 0,0 l/m 0,0 km/h (0 Bft) O-NO 71 0 min 0,000 mm 0,0 UV-I 0 W/m 1,2 C 5,5 C 0,0 km/h (0 Bft) 0,00 %
11.10.2015 22:15 5,4 C 75 % 1016,0 hPa 0,0 l/m 0,0 km/h (0 Bft) NO 48 0 min 0,000 mm 0,0 UV-I 0 W/m 1,3 C 5,4 C 0,0 km/h (0 Bft) 0,00 %
11.10.2015 22:20 5,3 C 76 % 1015,9 hPa 0,0 l/m 0,0 km/h (0 Bft) O-NO 61 0 min 0,000 mm 0,0 UV-I 0 W/m 1,4 C 5,3 C 0,0 km/h (0 Bft) 0,00 %
11.10.2015 22:25 5,2 C 77 % 1016,0 hPa 0,0 l/m 0,0 km/h (0 Bft) O-NO 74 0 min 0,000 mm 0,0 UV-I 0 W/m 1,5 C 5,2 C 0,0 km/h (0 Bft) 0,00 %
11.10.2015 22:30 5,1 C 79 % 1016,0 hPa 0,0 l/m 0,0 km/h (0 Bft) O-NO 64 0 min 0,000 mm 0,0 UV-I 0 W/m 1,8 C 5,1 C 0,0 km/h (0 Bft) 0,00 %
11.10.2015 22:35 5,0 C 79 % 1016,1 hPa 0,0 l/m 0,0 km/h (0 Bft) O-NO 60 0 min 0,000 mm 0,0 UV-I 0 W/m 1,7 C 5,0 C 0,0 km/h (0 Bft) 0,00 %
11.10.2015 22:40 5,0 C 79 % 1016,0 hPa 0,0 l/m 0,0 km/h (0 Bft) NO 51 0 min 0,000 mm 0,0 UV-I 0 W/m 1,7 C 5,0 C 0,0 km/h (0 Bft) 0,00 %
11.10.2015 22:45 4,9 C 78 % 1016,1 hPa 0,0 l/m 1,4 km/h (1 Bft) O 90 0 min 0,000 mm 0,0 UV-I 0 W/m 1,4 C 4,9 C 4,0 km/h (1 Bft) 0,00 %
11.10.2015 22:50 5,0 C 76 % 1016,2 hPa 0,0 l/m 0,0 km/h (0 Bft) NO 55 0 min 0,000 mm 0,0 UV-I 0 W/m 1,1 C 5,0 C 0,0 km/h (0 Bft) 0,00 %
11.10.2015 22:55 5,1 C 75 % 1016,0 hPa 0,0 l/m 2,2 km/h (1 Bft) O-NO 77 0 min 0,000 mm 0,0 UV-I 0 W/m 1,0 C 5,1 C 4,0 km/h (1 Bft) 0,00 %
11.10.2015 23:00 5,1 C 74 % 1016,0 hPa 0,0 l/m 0,0 km/h (0 Bft) O-NO 64 0 min 0,000 mm 0,0 UV-I 0 W/m 0,9 C 5,1 C 0,0 km/h (0 Bft) 0,00 %
11.10.2015 23:05 5,2 C 74 % 1015,8 hPa 0,0 l/m 1,4 km/h (1 Bft) O 85 0 min 0,000 mm 0,0 UV-I 0 W/m 1,0 C 5,2 C 4,0 km/h (1 Bft) 0,00 %
11.10.2015 23:10 5,1 C 74 % 1015,9 hPa 0,0 l/m 0,0 km/h (0 Bft) O 94 0 min 0,000 mm 0,0 UV-I 0 W/m 0,9 C 5,1 C 0,0 km/h (0 Bft) 0,00 %
11.10.2015 23:16 5,0 C 74 % 1016,1 hPa 0,0 l/m 0,0 km/h (0 Bft) NO 44 0 min 0,000 mm 0,0 UV-I 0 W/m 0,8 C 5,0 C 0,0 km/h (0 Bft) 0,00 %
11.10.2015 23:21 4,9 C 74 % 1016,0 hPa 0,0 l/m 0,0 km/h (0 Bft) O-NO 66 0 min 0,000 mm 0,0 UV-I 0 W/m 0,7 C 4,9 C 0,0 km/h (0 Bft) 0,00 %
11.10.2015 23:26 4,9 C 75 % 1015,9 hPa 0,0 l/m 5,4 km/h (1 Bft) O-NO 76 0 min 0,000 mm 0,0 UV-I 0 W/m 0,8 C 4,9 C 7,9 km/h (2 Bft) 0,00 %
11.10.2015 23:31 4,8 C 74 % 1015,9 hPa 0,0 l/m 1,4 km/h (1 Bft) NO 36 0 min 0,000 mm 0,0 UV-I 0 W/m 0,6 C 4,8 C 4,0 km/h (1 Bft) 0,00 %
11.10.2015 23:36 4,8 C 75 % 1015,9 hPa 0,0 l/m 0,4 km/h (0 Bft) O-NO 62 0 min 0,000 mm 0,0 UV-I 0 W/m 0,8 C 4,8 C 4,0 km/h (1 Bft) 0,00 %
11.10.2015 23:41 4,7 C 74 % 1015,8 hPa 0,0 l/m 3,2 km/h (1 Bft) O-NO 75 0 min 0,000 mm 0,0 UV-I 0 W/m 0,5 C 4,7 C 4,0 km/h (1 Bft) 0,00 %
11.10.2015 23:46 4,6 C 74 % 1015,9 hPa 0,0 l/m 2,9 km/h (1 Bft) O 90 0 min 0,000 mm 0,0 UV-I 0 W/m 0,4 C 4,6 C 4,0 km/h (1 Bft) 0,00 %
11.10.2015 23:51 4,6 C 74 % 1016,1 hPa 0,0 l/m 3,2 km/h (1 Bft) O-NO 63 0 min 0,000 mm 0,0 UV-I 0 W/m 0,4 C 4,6 C 4,0 km/h (1 Bft) 0,00 %
11.10.2015 23:56 4,5 C 75 % 1015,9 hPa 0,0 l/m 0,7 km/h (0 Bft) O-NO 57 0 min 0,000 mm 0,0 UV-I 0 W/m 0,5 C 4,5 C 4,0 km/h (1 Bft) 0,00 %
_ Min-Zeit 07:05 17:05 15:10 - 04:49 - - - - - - 23:46 01:09 04:49 00:04
Minimum _ 4,3 C 62 % 1012,8 hPa - 0,0 km/h (0 Bft) - - - - - - 0,4 C 0,7 C 0,0 km/h (0 Bft) 0,00 %
_ Max-Zeit 17:25 05:44 22:50 01:59 00:59 - - 13:15 00:04 10:40 14:55 13:30 17:25 00:29 00:04
Maximum _ 10,5 C 99 % 1016,2 hPa 0,3 l/m 14,8 km/h
O (3 Bft)
- - 5 min 0,000 mm 1,0 UV-I 690 W/m 6,7 C 10,5 C 19,8 km/h
O-SO (3 Bft)
0,00 %
Durchschnitt _ 6,0 C 88 % 1014,0 hPa #7,5 l/m 1,7 km/h (1 Bft) O - #4:10 h #0,000 mm 1,0 UV-I 230 W/m 4,0 C 5,8 C 3,0 km/h (1 Bft) 0,00 %